Regional Weather Roundup
Issued by NWS Pendleton, OR

Home | Current Version | Previous Version | Text Only | Print | Product List | Glossary On
Versions: 1 2 3 4 5 6 7 8 9 10 11 12 13 14 15 16 17 18 19 20 21 22 23 24 25 26 27 28 29 30 31 32 33 34 35 36 37 38 39 40 41 42 43 44 45 46 47 48 49 50
000
ASUS46 KPDT 250710
RWRPDT
PENDLETON REGIONAL WEATHER ROUNDUP
NATIONAL WEATHER SERVICE PENDLETON OREGON
1100 PM PST WED DEC 24 2014

NOTE: FAIR INDICATES FEW OR NO CLOUDS BELOW 12,000 FEET WITH NO
SIGNIFICANT WEATHER AND/OR OBSTRUCTIONS TO VISIBILITY.

# INDICATES UNOFFICIAL STATION AND DATA

WAZ520-250810-
EAST SLOPES OF WASHINGTON CASCADES

CITY            SKY/WX      TMP DP  RH  WIND    PRES   REMARKS
#BULLFROG 2SW   N/A         35  33  92  CALM    27.52R
#BUMPING DAM    N/A         28  N/A N/A W3      N/A
#CLE ELUM HS    N/A         35  29  78  W7      29.89R
#CLE ELUM 2NW   N/A         35  30  82  SW2     N/A
#CLE ELUM LAKE  N/A         32  28  85  CALM    29.97R
#CLIFFDEL 2NW   N/A         33  28  82  N5      N/A
#EASTON DOT     N/A         33  31  92  CALM    N/A
#GLENWOOD       N/A         29  27  92  CALM    29.94R
#MANASTASH CYN  N/A         29  23  78  CALM    29.86R
#NELSON         N/A         35  32  89  CALM    29.99R
#NELSON 3SW     N/A         34  28  78  CALM    30.18R
#NILE           N/A         35  29  78  E1      29.19R
#PEOH POINT     N/A         27  27  100 W7      N/A
#RONALD 2NW     N/A         34  30  85  N1      29.78R
#SNOWDEN        N/A         34  26  72  NW3     N/A
#TEANAWAY 4NE   N/A         34  30  85  CALM    N/A
#TROUT LAKE HS  N/A         38  33  82  W3      N/A
#TROUT LAKE 1NE N/A         37  32  82  W10     29.97R
$$

WAZ521-250810-
SIMCOE HIGHLANDS

CITY            SKY/WX      TMP DP  RH  WIND    PRES   REMARKS
#BICKLETON HS   N/A         33  17  51  NW10    34.25S
#SATUS PASS DOT N/A         33  17  51  CALM    N/A
#CENTERVILLE 1SWN/A         35  31  85  SW3     29.96R
#GOLDENDALE     N/A         34  32  92  S5      N/A
#GOLDENDALE 1NE N/A         33  30  89  CALM    N/A
#GOLDENDALE 5WNWN/A         34  30  85  W7      29.95R
#GOODNOE HILLS  N/A         36  30  79  NW12    N/A    WCI 28
#LYLE 6NE       N/A         38  35  89  SW9     29.96R
$$

WAZ026-250810-
KITTITAS VALLEY

CITY            SKY/WX      TMP DP  RH  WIND    PRES   REMARKS
ELLENSBURG AP   PTCLDY      37  27  67  NW12    29.90R WCI 29
#ELLENSBURG CWU N/A         37  29  72  N15     29.88R WCI 28
#ELLENSBURG 3NE N/A         35  29  78  N6      29.91R
#ELLENSBURG     N/A         40  34  79  NW3     N/A
#ELLENSBURG 1E  N/A         37  27  67  NW2     N/A
#KITTITAS 4N    N/A         35  26  69  CALM    29.95R
#KITTITAS 3S    N/A         34  29  82  CALM    29.93R
#THORP 6N       N/A         35  30  82  W22G35  29.95R WCI 23
$$

WAZ027-250810-
YAKIMA VALLEY

CITY            SKY/WX      TMP DP  RH  WIND    PRES   REMARKS
YAKIMA AIRPORT  CLEAR       31  23  72  W9      29.92R
YAKIMA-VAGABOND CLEAR       37  26  64  NE3     29.93R
#DONALD 2NE     N/A         37  22  54  CALM    28.78R
#GRANDVIEW      N/A         31  25  78  CALM    29.96R
#MABTON         N/A         33  28  82  CALM    29.93R
#NACHES 2SW     N/A         37  28  70  CALM    29.88R
#TERRACE HTS    N/A         39  28  64  NW6     29.91R
#WAPATO 4NE     N/A         37  22  54  CALM    28.78R
#WEST VALLEY    N/A         32  24  72  W2      29.93R
#W YAKIMA       N/A         39  27  62  W3      29.95R
#WHITE SWAN 5E  N/A         32  26  78  S1      29.96R
#WILEY CITY 3W  N/A         31  22  69  CALM    29.90R
$$

WAZ028-250810-
LOWER COLUMBIA BASIN...WASHINGTON

CITY            SKY/WX      TMP DP  RH  WIND    PRES   REMARKS
PASCO           CLEAR       39  29  67  W8      29.93R
PROSSER AWOS    N/A         30  28  92  SW6     29.96R
RICHLAND AWOS   CLEAR       39  27  62  CALM    29.92R
#BASIN CITY 5SW N/A         38  32  79  NW9     29.90R
#BENTON CITY    N/A         42  28  57  SW15    29.82R WCI 34
#CONNELL 5N     N/A         32  29  89  NW1     29.90R
#CONNELL 5NW    N/A         34  30  85  NW5     29.87R
#ELTOPIA        N/A         38  32  79  CALM    29.88R
#ELTOPIA 6NW    N/A         37  30  75  W3      28.85R
#KAHLOTUS       N/A         36  28  72  NW16    29.88R WCI 26
#KENNEWICK      N/A         35  33  92  CALM    27.52R
#KENNEWICK 3S   N/A         37  28  70  W2      29.93R
#PASCO-BROADMOORN/A         41  27  57  W1      29.84R
#PATERSON       N/A         37  31  79  NW1     29.93R
#PROSSER DOT    N/A         37  28  70  SW7     N/A
#PROSSER        N/A         38  25  59  SW5     29.93R
#SAGEMOOR 2W    N/A         37  31  79  SW5     29.75R
#TOUCHET 2S     N/A         39  32  76  SW10    29.91R
#WEST PASCO     N/A         41  30  65  S1      29.92R
$$

WAZ029-250810-
FOOTHILLS OF THE BLUES...WASHINGTON

CITY            SKY/WX      TMP DP  RH  WIND    PRES   REMARKS
WALLA WALLA AP  CLOUDY      38  32  79  S15     29.90R WCI 29
#COLLEGE PLACE  N/A         40  32  73  SE3     29.93R
#DAYTON SCHOOL  N/A         36  27  69  SW2     29.89R
#DELANEY DOT    N/A         39  32  76  W6      N/A
#LOWDEN 2SE     N/A         38  33  82  CALM    29.89R
#PLEASANT VIEW 1N/A         32  29  89  SW5     29.94R
#PRESCOTT       N/A         36  33  89  CALM    29.90R
#SUDBURY        N/A         39  N/A N/A CALM    N/A
#WHITMAN COLLEGEN/A         37  33  85  SE7     29.98R
#WAITSBURG 5S   N/A         34  31  89  S14     30.01R WCI 25
#WALLA WALLA 5E N/A         37  33  85  S14     N/A    WCI 28
#WALLA WALLA U  N/A         39  35  85  CALM    29.93R
#WHITMAN MISSIONN/A         39  34  82  CALM    29.95R
$$

WAZ030-250810-
BLUE MOUNTAINS...WASHINGTON

CITY            SKY/WX      TMP DP  RH  WIND    PRES   REMARKS
#DIXIE 5SE      N/A         29  28  96  CALM    29.77R
$$

ORZ009-041-WAZ024-250810-
COLUMBIA RIVER GORGE

CITY            SKY/WX      TMP DP  RH  WIND    PRES   REMARKS
HOOD RIVER AP   LGT DRIZZLE 43  36  76  W7      30.01R
THE DALLES AP   PTCLDY      44  33  65  W5      29.99R
#ARLINGTON AIRPON/A         39  34  82  W9      30.01S
#ARLINGTON HS   N/A         41  34  76  CALM    29.89R
#CELILO DOT     N/A         45  31  58  SW7     N/A
#LYLE           N/A         45  38  76  W9G24   30.01R
#MARYHILL       N/A         41  33  73  W10     N/A
#MARYHILL 2W    N/A         41  37  86  S7      N/A
#MOSIER 1S      N/A         42  28  57  CALM    30.00R
#MURDOCK        N/A         46  39  76  NW25    30.00R WCI 37
#RUFUS DOT      N/A         43  31  62  CALM    N/A

$$

ORZ510-250810-
NORTH CENTRAL OREGON

CITY            SKY/WX      TMP DP  RH  WIND    PRES   REMARKS
#CHENOWITH 1W   N/A         37  33  85  W30     N/A    WCI 24
#COW CYN RST AREN/A         33  27  78  W7      N/A
#DUFUR 9E       N/A         35  31  85  W15     30.03R WCI 25
#GRASS VALLEY   N/A         35  31  85  W5      N/A
#GRASS VALLEY 1SN/A         35  30  82  NW12    30.02R WCI 27
#KENT DOT       N/A         33  23  66  W14     N/A    WCI 23
#MAUPIN SCHOOL  N/A         36  29  75  CALM    29.98R
#MORO SCHOOL    N/A         38  34  85  W14G26  29.96R WCI 30
#SHANIKO 4NW    N/A         28  27  96  W8      29.91R
#TYGH VALLEY 2NEN/A         35  29  78  NE1     29.97R
#WAPANITIA AIRPON/A         38  31  76  W7      29.98R
#WASCO DOT      N/A         40  32  73  W10     N/A
#WASCO 5NE      N/A         37  33  85  W10     29.98R
$$

ORZ511-250810-
CENTRAL OREGON

CITY            SKY/WX      TMP DP  RH  WIND    PRES   REMARKS
BEND AIRPORT    CLOUDY      30  25  81  CALM    29.97R
MADRAS AIRPORT  PTCLDY      32  27  82  CALM    29.99R
PRINEVILLE AP   CLOUDY      30  28  92  W7      29.96R
REDMOND AIRPORT MOCLDY      33  27  78  NW8     29.96R
#BEND 1SW       N/A         24  23  96  CALM    N/A
#BEND-AWBREY    N/A         32  28  85  NE1     30.03R
#BEND-KIM LN    N/A         30  27  88  CALM    29.91R
#CROOKED RVR RANN/A         34  29  82  NW2     30.02R
#CULVER         N/A         31  26  81  CALM    29.94R
#LAKE BILLY CHINN/A         38  16  40  N3      30.09R
#POWELL BUTTE   N/A         31  27  85  N5      29.59R
#PRINEVILLE 3N  N/A         28  26  92  E3      30.01R
#WARM SPRINGS   N/A         33  29  85  CALM    29.96R


ORZ509-250810-
EAST SLOPES OF OREGON CASCADES

CITY            SKY/WX      TMP DP  RH  WIND    PRES   REMARKS
#BLUE BOX PASS  N/A         29  -19 11  SE2     N/A
#BLACK BUTTE RNCN/A         35  31  85  E1      30.00R
#CAMP SHERMAN   N/A         34  30  85  CALM    30.05R
#LA PINE DOT    N/A         31  21  66  NW10    N/A
#LA PINE 4NW    N/A         31  24  75  NW5     30.07R
#LAVA BUTTE DOT N/A         25  23  92  CALM    N/A
#MT BACHELOR-MIDN/A         18  16  92  E22G33  N/A    WCI  1
#SISTERS AIRPOR N/A         36  30  79  N7      30.17S
#SISTERS ODOT   N/A         37  N/A N/A CALM    N/A
#SISTERS 3N     N/A         34  24  66  CALM    29.99R
#SUNRIVER       N/A         28  27  96  CALM    29.92R
#TUMALO 3W      N/A         34  27  75  NW13    29.89R WCI 25
#WANOGA BUTTE D N/A         24  19  81  NW7     N/A

$$

ORZ044-250810-
LOWER COLUMBIA BASIN...OREGON

CITY            SKY/WX      TMP DP  RH  WIND    PRES   REMARKS
HERMISTON       CLEAR       36  32  85  SW3     29.93R
#BOARDMAN 3W    N/A         37  34  89  SW6     29.68R
#BOARDMAN 8SW   N/A         38  34  85  W5      29.95R
#ECHO 8SW       N/A         37  32  82  W9      29.90R
#IONE SCHOOL    N/A         39  26  59  SW9     29.93R
#IRRIGON 4NW    N/A         34  33  96  S5      N/A
#UMATILLA SCHOOLN/A         32  32  100 CALM    30.00R
#UMATILLA       N/A         38  31  76  CALM    29.92R
$$

ORZ507-250810-
NORTHERN FOOTHILLS OF THE BLUES

CITY            SKY/WX      TMP DP  RH  WIND    PRES   REMARKS
PENDLETON AIRPT PTCLDY      35  32  89  W18     29.89R WCI 24
#ADAMS 3WNW     N/A         32  31  96  S1      29.94R
#ATHENA         N/A         34  31  89  SW1     29.96R
#CAYUSE         N/A         37  31  79  W7      29.93R
#HELIX SCHOOL   N/A         33  31  92  W6      29.94R
#HELIX 3N       N/A         32  30  92  SW9     29.86R
#HOLDMAN 5SE    N/A         34  32  92  SW8     29.91R
#HOLDMAN 6E     N/A         31  30  96  NE3     29.74R
#M-F GROVE ELEM N/A         37  29  72  S3      29.90R
#M-FREEWATER 5SEN/A         37  31  79  S3      29.91R
#PENDLETON DNTN N/A         37  33  85  W2      28.73R
#PDT AQUATIC CTRN/A         39  32  76  W5      29.91R
#PENDLETON 5NE  N/A         35  32  89  SW1     29.88R
#PDT SUNRIDGE   N/A         38  33  82  SW3     29.93R
#PENDLETON 7NW  N/A         35  31  85  W8      32.13R
#PILOT ROCK     N/A         35  27  72  W1      29.92R
#TUTUILLA       N/A         35  31  85  SW2     29.94R
#UMAPINE 2E     N/A         38  34  85  CALM    29.89R
#WESTON SCHOOL  N/A         34  28  78  W5      29.88R

$$

ORZ508-250810-
SOUTHERN FOOTHILLS OF THE BLUES

CITY            SKY/WX      TMP DP  RH  WIND    PRES   REMARKS
LEXINGTON       MOCLDY      37  32  82  CALM    29.95R
#AJAX           N/A         37  25  61  S5      29.88R
#CONDON SCHOOL  N/A         33  30  89  CALM    29.88R
#CONDON 5W      N/A         29  26  88  CALM    29.88R
#FOSSIL SCHOOL  N/A         28  25  88  CALM    29.92R
#HEPPNER EOC    N/A         34  30  85  W7      29.92R
#HEPPNER 4NE    N/A         31  29  92  SW5     29.96R
#LEXINGTON 2SE  N/A         34  30  85  CALM    29.91R
#MIKKALO        N/A         38  31  76  W15     29.94R WCI 29
#RUGGS 2SW      N/A         33  29  85  W15     29.98R WCI 23

$$

ORZ502-503-250810-
BLUE MOUNTAINS

CITY            SKY/WX      TMP DP  RH  WIND    PRES   REMARKS
MEACHAM         CLOUDY      28  25  88  VRB3    29.83R
#BATTLE MTN DOT N/A         27  27  100 N1      N/A
#HEPPNER 15SE   N/A         27  26  96  CALM    29.73R
#LADD CYN SMT   N/A         29  21  72  W23     N/A    WCI 15
#LADD CREEK ODOTN/A         31   4  31  N3      N/A
#LONG CREEK HS  N/A         28  28  100 CALM    29.82R
#N POWDER DOT   N/A         31  23  72  N15     N/A    WCI 20
#PIKES PEAK     N/A         27  25  92  NW7     27.99S
#TOLLGATE       N/A         23  22  96  SW2     29.73R
#TROY SCHOOL    N/A         36  34  92  CALM    29.69R
#UKIAH          N/A         31  27  85  W5      29.97R
#WESTON 4E      N/A         28  27  96  CALM    29.88R
$$

ORZ505-250810-
JOHN DAY BASIN

CITY            SKY/WX      TMP DP  RH  WIND    PRES   REMARKS
JOHN DAY        CLOUDY      31  28  88  W15     29.87R WCI 20
#DAYVILLE SCHOOLN/A         32  29  89  CALM    30.16S
#MONUMENT HS    N/A         31  26  81  CALM    29.94R
#MT. VERNON 5SE N/A         28  26  92  CALM    29.80R
#WINLOCK        N/A         32  27  82  NE6     29.99R
$$

ORZ506-250810-
OCHOCO AND JOHN DAY HIGHLANDS

CITY            SKY/WX      TMP DP  RH  WIND    PRES   REMARKS
#HORSE RIDGE DO N/A         10   5  80  CALM    N/A
#KEYES SMT DOT  N/A         27  25  92  CALM    N/A
#PAULINA SCHOOL N/A         N/A N/A N/A SW1     29.90R
#PRAIRIE CITY   N/A         27  21  78  W2      30.04R
#SENECA         N/A         26  N/A N/A N5      N/A
#SENECA 9NW     N/A         26  23  88  CALM    29.92R
$$

ORZ049-250810-
GRANDE RONDE VALLEY

CITY            SKY/WX      TMP DP  RH  WIND    PRES   REMARKS
LA GRANDE       CLOUDY      34  21  58  N8      29.81R
#COVE           N/A         31  26  81  CALM    30.03S
#COVE SCHOOL    N/A         31  28  88  CALM    29.81R
#COVE 6NW       N/A         28  25  88  CALM    29.94R
#ELGIN 3N       N/A         31  21  66  W3      29.55R
#ELGIN 1E       N/A         32  26  78  CALM    N/A
#ISLAND CITY 4N N/A         37  36  96  CALM    30.09R
#LADD CYN DOT   N/A         33  24  69  NW15G30 N/A    WCI 23
#UNION 1S       N/A         32  28  85  W2      29.82R
$$

ORZ050-250810-
WALLOWA COUNTY

CITY            SKY/WX      TMP DP  RH  WIND    PRES   REMARKS
#ENTERPRISE AP  N/A         28  25  88  W10     29.71R
#ENTERPRISE HS  N/A         29  27  92  NW6     29.80R
#IMNAHA SCHOOL  N/A         36  34  92  CALM    29.79R
#JOSEPH 3N      N/A         28  25  88  NW13    29.80R WCI 17
#JOSEPH 3W      N/A         27  18  68  CALM    29.61R
#LOSTINE        N/A         30  26  85  NW2     29.69R
#MT HOWARD 8000 N/A         14  12  92  W5      29.54R
#PROMISE 1S     N/A         29  25  85  E2      29.97R
#SHEEP RDG 7000 N/A         16  14  92  CALM    29.76R
#WALLOWA SCHOOL N/A         31  26  81  W1      30.86R



$$



USA.gov is the U.S. government's official web portal to all federal, state and local government web resources and services.